SHT8K EGCC-EGPH

Flight info

Callsign SHT8K
Flight time 0h 46m
Altitude 24000
Route POL N601 INPIP
Aircraft A20N/M-SDE2E3FGHIRWXY/LB1

Departure

Time 2026-04-26 12:33
Airport Manchester Airport (EGCC)

Arrival

Time 2026-04-26 13:19
Airport Edinburgh Airport (EGPH)
Time Latitude Longitude Altitude Speed Heading
2026-04-26 12:00 53.36041 -2.26893 249 ft 0 kts 315°
2026-04-26 12:17 53.36038 -2.26888 249 ft 1 kts 315°
2026-04-26 12:17 53.36034 -2.26881 249 ft 1 kts 315°
2026-04-26 12:17 53.36029 -2.26872 249 ft 1 kts 316°
2026-04-26 12:17 53.36021 -2.26860 249 ft 2 kts 321°
2026-04-26 12:18 53.35985 -2.26841 249 ft 7 kts 21°
2026-04-26 12:18 53.35989 -2.26825 249 ft 0 kts 49°
2026-04-26 12:22 53.35991 -2.26818 249 ft 4 kts 58°
2026-04-26 12:22 53.35980 -2.26719 250 ft 11 kts 110°
2026-04-26 12:23 53.36005 -2.26600 251 ft 12 kts 52°
2026-04-26 12:23 53.36064 -2.26474 253 ft 15 kts 51°
2026-04-26 12:23 53.36135 -2.26332 255 ft 17 kts 50°
2026-04-26 12:23 53.36189 -2.26261 256 ft 8 kts 37°
2026-04-26 12:24 53.36230 -2.26183 257 ft 10 kts 50°
2026-04-26 12:24 53.36263 -2.26114 258 ft 0 kts 57°
2026-04-26 12:26 53.36265 -2.26108 258 ft 0 kts 60°
2026-04-26 12:29 53.36265 -2.26107 258 ft 1 kts 60°
2026-04-26 12:30 53.36270 -2.26077 266 ft 4 kts 81°
2026-04-26 12:30 53.36269 -2.26029 259 ft 0 kts 96°
2026-04-26 12:31 53.36269 -2.26028 259 ft 1 kts 96°
2026-04-26 12:31 53.36269 -2.25992 259 ft 6 kts 83°
2026-04-26 12:31 53.36287 -2.25897 260 ft 11 kts 77°
2026-04-26 12:32 53.36264 -2.25780 261 ft 11 kts 136°
2026-04-26 12:32 53.36197 -2.25794 260 ft 12 kts 231°
2026-04-26 12:32 53.35684 -2.26847 247 ft 123 kts 232°
2026-04-26 12:33 53.35043 -2.28174 414 ft 157 kts 229°
2026-04-26 12:33 53.34359 -2.29614 1033 ft 165 kts 229°
2026-04-26 12:33 53.33615 -2.31179 1677 ft 176 kts 228°
2026-04-26 12:33 53.32853 -2.32813 2449 ft 177 kts 237°
2026-04-26 12:34 53.32462 -2.34734 3417 ft 173 kts 263°
2026-04-26 12:34 53.32667 -2.36752 3903 ft 188 kts 287°
2026-04-26 12:34 53.33323 -2.38769 4353 ft 209 kts 306°
2026-04-26 12:34 53.34470 -2.40460 4875 ft 232 kts 324°
2026-04-26 12:35 53.35993 -2.41768 5413 ft 260 kts 335°
2026-04-26 12:35 53.37737 -2.42816 6010 ft 274 kts 340°
2026-04-26 12:35 53.39590 -2.43761 6672 ft 280 kts 342°
2026-04-26 12:35 53.40834 -2.44373 7074 ft 282 kts 342°
2026-04-26 12:36 53.42719 -2.45306 7694 ft 283 kts 341°
2026-04-26 12:36 53.45313 -2.45972 8521 ft 289 kts
2026-04-26 12:36 53.46636 -2.45610 8953 ft 292 kts 14°
2026-04-26 12:36 53.48532 -2.44315 9608 ft 296 kts 27°
2026-04-26 12:37 53.50837 -2.41795 10469 ft 301 kts 36°
2026-04-26 12:37 53.51981 -2.40319 10892 ft 314 kts 38°
2026-04-26 12:37 53.53729 -2.37960 11519 ft 330 kts 38°
2026-04-26 12:37 53.55559 -2.35470 12155 ft 346 kts 38°
2026-04-26 12:38 53.57446 -2.32927 12805 ft 356 kts 38°
2026-04-26 12:38 53.59403 -2.30307 13464 ft 360 kts 38°
2026-04-26 12:38 53.61384 -2.27663 14134 ft 363 kts 38°
2026-04-26 12:38 53.63381 -2.25003 14733 ft 367 kts 37°
2026-04-26 12:39 53.65365 -2.22361 15334 ft 370 kts 37°
2026-04-26 12:39 53.67393 -2.19659 15958 ft 373 kts 37°
2026-04-26 12:39 53.69443 -2.16925 16602 ft 377 kts 37°
2026-04-26 12:39 53.69498 -2.16850 16613 ft 377 kts 37°
2026-04-26 12:40 53.70325 -2.15746 16934 ft 369 kts 37°
2026-04-26 12:40 53.72430 -2.13459 17648 ft 359 kts 22°
2026-04-26 12:40 53.74852 -2.12333 18331 ft 363 kts
2026-04-26 12:41 53.77358 -2.12534 18951 ft 366 kts 345°
2026-04-26 12:41 53.79768 -2.13944 19559 ft 369 kts 335°
2026-04-26 12:41 53.82167 -2.15603 20166 ft 375 kts 335°
2026-04-26 12:41 53.84609 -2.17287 20791 ft 381 kts 335°
2026-04-26 12:42 53.87083 -2.18985 21427 ft 386 kts 335°
2026-04-26 12:42 53.89556 -2.20680 22074 ft 390 kts 335°
2026-04-26 12:42 53.92097 -2.22424 22743 ft 393 kts 335°
2026-04-26 12:42 53.94652 -2.24180 23427 ft 397 kts 335°
2026-04-26 12:43 53.97028 -2.25812 23995 ft 401 kts 335°
2026-04-26 12:43 53.99002 -2.27171 24192 ft 407 kts 335°
2026-04-26 12:43 54.01431 -2.28843 24279 ft 408 kts 335°
2026-04-26 12:43 54.03878 -2.30529 24298 ft 408 kts 335°
2026-04-26 12:44 54.05459 -2.31621 24297 ft 408 kts 335°
2026-04-26 12:44 54.07418 -2.32976 24294 ft 407 kts 335°
2026-04-26 12:44 54.09819 -2.34638 24295 ft 408 kts 335°
2026-04-26 12:44 54.11979 -2.36136 24299 ft 408 kts 335°
2026-04-26 12:45 54.13858 -2.37440 24296 ft 407 kts 335°
2026-04-26 12:45 54.16178 -2.39053 24295 ft 407 kts 335°
2026-04-26 12:45 54.18780 -2.40861 24295 ft 408 kts 335°
2026-04-26 12:45 54.21413 -2.42691 24294 ft 408 kts 335°
2026-04-26 12:46 54.24043 -2.44521 24294 ft 407 kts 335°
2026-04-26 12:46 54.26668 -2.46350 24294 ft 407 kts 335°
2026-04-26 12:46 54.29264 -2.48161 24293 ft 408 kts 335°
2026-04-26 12:46 54.31214 -2.49524 24293 ft 408 kts 335°
2026-04-26 12:47 54.33853 -2.51369 24291 ft 407 kts 335°
2026-04-26 12:47 54.36471 -2.53204 24291 ft 407 kts 335°
2026-04-26 12:47 54.39103 -2.55050 24292 ft 408 kts 335°
2026-04-26 12:47 54.41701 -2.56876 24287 ft 408 kts 335°
2026-04-26 12:48 54.44338 -2.58730 24290 ft 407 kts 335°
2026-04-26 12:48 54.46939 -2.60562 24284 ft 407 kts 335°
2026-04-26 12:48 54.49575 -2.62421 24286 ft 407 kts 335°
2026-04-26 12:48 54.52208 -2.64282 24284 ft 407 kts 334°
2026-04-26 12:49 54.54817 -2.66130 24287 ft 408 kts 334°
2026-04-26 12:49 54.57443 -2.67994 24284 ft 408 kts 334°
2026-04-26 12:49 54.60071 -2.69861 24281 ft 407 kts 334°
2026-04-26 12:49 54.62660 -2.71702 24281 ft 408 kts 334°
2026-04-26 12:50 54.65294 -2.73576 24286 ft 407 kts 334°
2026-04-26 12:50 54.67925 -2.75452 24283 ft 407 kts 334°
2026-04-26 12:50 54.70521 -2.77305 24283 ft 407 kts 334°
2026-04-26 12:50 54.73148 -2.79183 24281 ft 407 kts 334°
2026-04-26 12:51 54.75780 -2.81068 24280 ft 407 kts 334°
2026-04-26 12:51 54.78375 -2.82929 24282 ft 407 kts 334°
2026-04-26 12:51 54.80999 -2.84814 24278 ft 407 kts 334°
2026-04-26 12:51 54.83627 -2.86702 24277 ft 408 kts 334°
2026-04-26 12:52 54.86219 -2.88568 24276 ft 408 kts 334°
2026-04-26 12:52 54.88846 -2.90463 24274 ft 407 kts 334°
2026-04-26 12:52 54.91474 -2.92362 24196 ft 408 kts 334°
2026-04-26 12:52 54.93592 -2.93893 23941 ft 408 kts 334°
2026-04-26 12:53 54.96056 -2.95678 23450 ft 406 kts 334°
2026-04-26 12:53 54.98654 -2.97559 22895 ft 401 kts 334°
2026-04-26 12:53 55.01227 -2.99424 22365 ft 395 kts 334°
2026-04-26 12:53 55.03719 -3.01235 21847 ft 393 kts 334°
2026-04-26 12:54 55.06245 -3.03075 21330 ft 392 kts 334°
2026-04-26 12:54 55.08758 -3.04906 20821 ft 387 kts 334°
2026-04-26 12:54 55.11234 -3.06714 20420 ft 383 kts 334°
2026-04-26 12:54 55.13657 -3.08486 20295 ft 383 kts 334°
2026-04-26 12:55 55.16133 -3.10300 20274 ft 385 kts 334°
2026-04-26 12:55 55.18612 -3.12116 20271 ft 385 kts 334°
2026-04-26 12:55 55.21037 -3.13894 20272 ft 375 kts 334°
2026-04-26 12:55 55.23394 -3.15619 20270 ft 357 kts 334°
2026-04-26 12:56 55.25682 -3.17303 20274 ft 364 kts 334°
2026-04-26 12:56 55.28075 -3.19022 20269 ft 385 kts 338°
2026-04-26 12:56 55.30735 -3.20006 20270 ft 392 kts 352°
2026-04-26 12:56 55.33442 -3.19928 20269 ft 395 kts
2026-04-26 12:57 55.36182 -3.19449 20152 ft 396 kts
2026-04-26 12:57 55.38933 -3.19002 19744 ft 396 kts
2026-04-26 12:57 55.41674 -3.18570 19147 ft 394 kts
2026-04-26 12:58 55.47120 -3.17721 17835 ft 390 kts
2026-04-26 12:58 55.49837 -3.17300 16786 ft 397 kts
2026-04-26 12:58 55.52630 -3.16867 15602 ft 406 kts
2026-04-26 12:58 55.55465 -3.16425 14341 ft 417 kts
2026-04-26 12:59 55.58370 -3.15966 13358 ft 418 kts
2026-04-26 12:59 55.61259 -3.15505 12535 ft 413 kts
2026-04-26 12:59 55.64071 -3.15059 11736 ft 408 kts
2026-04-26 12:59 55.66893 -3.14611 10955 ft 404 kts
2026-04-26 13:00 55.69673 -3.14170 10397 ft 395 kts
2026-04-26 13:00 55.72355 -3.13741 9897 ft 385 kts
2026-04-26 13:00 55.74944 -3.12668 9359 ft 380 kts 20°
2026-04-26 13:00 55.77181 -3.10223 8843 ft 375 kts 38°
2026-04-26 13:01 55.79208 -3.07379 8322 ft 367 kts 33°
2026-04-26 13:01 55.81429 -3.05396 7835 ft 358 kts 21°
2026-04-26 13:01 55.83521 -3.03050 7426 ft 352 kts 43°
2026-04-26 13:01 55.84924 -2.99604 7288 ft 337 kts 65°
2026-04-26 13:02 55.85495 -2.95694 7266 ft 318 kts 88°
2026-04-26 13:02 55.85236 -2.91927 7261 ft 298 kts 109°
2026-04-26 13:02 55.84358 -2.88784 7262 ft 280 kts 129°
2026-04-26 13:02 55.82993 -2.86313 7087 ft 279 kts 147°
2026-04-26 13:03 55.81285 -2.84750 6726 ft 274 kts 165°
2026-04-26 13:03 55.79441 -2.84233 6348 ft 269 kts 183°
2026-04-26 13:03 55.77606 -2.84727 5976 ft 266 kts 200°
2026-04-26 13:03 55.75953 -2.86157 5578 ft 263 kts 217°
2026-04-26 13:04 55.74637 -2.88348 5198 ft 260 kts 233°
2026-04-26 13:04 55.73752 -2.91115 5006 ft 252 kts 250°
2026-04-26 13:04 55.73364 -2.94007 4959 ft 237 kts 263°
2026-04-26 13:04 55.73159 -2.96818 4956 ft 222 kts 262°
2026-04-26 13:05 55.72932 -2.99574 4968 ft 228 kts 261°
2026-04-26 13:05 55.72699 -3.02336 4964 ft 225 kts 261°
2026-04-26 13:05 55.72468 -3.05062 4955 ft 225 kts 261°
2026-04-26 13:05 55.72237 -3.07809 4963 ft 226 kts 261°
2026-04-26 13:06 55.72007 -3.10549 4958 ft 219 kts 261°
2026-04-26 13:06 55.71837 -3.13120 4956 ft 202 kts 268°
2026-04-26 13:06 55.71977 -3.15484 4969 ft 183 kts 281°
2026-04-26 13:06 55.72160 -3.17676 4967 ft 184 kts 261°
2026-04-26 13:07 55.71664 -3.19738 4970 ft 182 kts 239°
2026-04-26 13:07 55.71051 -3.21711 4959 ft 182 kts 247°
2026-04-26 13:07 55.70759 -3.23862 4966 ft 183 kts 259°
2026-04-26 13:07 55.70545 -3.26086 4968 ft 183 kts 259°
2026-04-26 13:08 55.70328 -3.28318 4957 ft 183 kts 259°
2026-04-26 13:08 55.70112 -3.30699 4957 ft 203 kts 265°
2026-04-26 13:08 55.70289 -3.33165 4961 ft 206 kts 279°
2026-04-26 13:08 55.70563 -3.35666 4959 ft 205 kts 279°
2026-04-26 13:09 55.70837 -3.38158 4958 ft 206 kts 279°
2026-04-26 13:09 55.71112 -3.40636 4961 ft 206 kts 279°
2026-04-26 13:09 55.71664 -3.42978 4965 ft 210 kts 307°
2026-04-26 13:09 55.72797 -3.44649 4971 ft 213 kts 324°
2026-04-26 13:10 55.74002 -3.45948 4957 ft 190 kts 327°
2026-04-26 13:10 55.75101 -3.47053 4963 ft 183 kts 327°
2026-04-26 13:10 55.76159 -3.48308 4959 ft 180 kts 316°
2026-04-26 13:10 55.76994 -3.49943 4968 ft 178 kts 301°
2026-04-26 13:11 55.77584 -3.51831 4963 ft 176 kts 291°
2026-04-26 13:11 55.78017 -3.53866 4957 ft 175 kts 285°
2026-04-26 13:11 55.78364 -3.55925 4819 ft 169 kts 283°
2026-04-26 13:11 55.78664 -3.57884 4566 ft 164 kts 282°
2026-04-26 13:12 55.78955 -3.59832 4309 ft 164 kts 282°
2026-04-26 13:12 55.79247 -3.61779 4053 ft 162 kts 282°
2026-04-26 13:12 55.79541 -3.63709 3969 ft 162 kts 282°
2026-04-26 13:12 55.79842 -3.65658 3965 ft 164 kts 283°
2026-04-26 13:13 55.80141 -3.67592 3970 ft 163 kts 282°
2026-04-26 13:13 55.80441 -3.69536 3964 ft 162 kts 283°
2026-04-26 13:13 55.80783 -3.71460 3951 ft 165 kts 296°
2026-04-26 13:13 55.81688 -3.72709 3908 ft 173 kts 347°
2026-04-26 13:14 55.82836 -3.72253 3844 ft 178 kts 33°
2026-04-26 13:14 55.83716 -3.70701 3764 ft 177 kts 54°
2026-04-26 13:14 55.84389 -3.68858 3675 ft 178 kts 60°
2026-04-26 13:14 55.85001 -3.66978 3610 ft 177 kts 60°
2026-04-26 13:15 55.85637 -3.65081 3482 ft 177 kts 60°
2026-04-26 13:15 55.86263 -3.63225 3293 ft 176 kts 59°
2026-04-26 13:15 55.86884 -3.61369 3099 ft 172 kts 60°
2026-04-26 13:15 55.87289 -3.60159 2944 ft 169 kts 59°
2026-04-26 13:16 55.88048 -3.57905 2653 ft 151 kts 59°
2026-04-26 13:16 55.88581 -3.56315 2459 ft 149 kts 59°
2026-04-26 13:16 55.89114 -3.54730 2260 ft 148 kts 59°
2026-04-26 13:16 55.89642 -3.53159 2059 ft 147 kts 59°
2026-04-26 13:17 55.90668 -3.50107 1662 ft 141 kts 59°
2026-04-26 13:17 55.91174 -3.48605 1469 ft 140 kts 59°
2026-04-26 13:18 55.92168 -3.45654 1086 ft 138 kts 59°
2026-04-26 13:18 55.92659 -3.44195 891 ft 136 kts 58°
2026-04-26 13:18 55.93613 -3.41296 547 ft 135 kts 59°
2026-04-26 13:19 55.94077 -3.39884 329 ft 129 kts 57°
2026-04-26 13:19 55.94555 -3.38551 155 ft 124 kts 57°
2026-04-26 13:19 55.94960 -3.37368 112 ft 87 kts 58°
2026-04-26 13:19 55.95120 -3.36902 113 ft 12 kts 58°
2026-04-26 13:20 55.95188 -3.36706 115 ft 27 kts 57°
2026-04-26 13:20 55.95252 -3.36388 106 ft 25 kts 117°
2026-04-26 13:20 55.95168 -3.36322 109 ft 10 kts 174°
2026-04-26 13:20 55.95145 -3.36317 109 ft 0 kts 173°
2026-04-26 13:21 55.95126 -3.36324 109 ft 5 kts 200°
2026-04-26 13:21 55.95099 -3.36370 111 ft 6 kts 230°
2026-04-26 13:22 55.95055 -3.36390 111 ft 8 kts 174°
2026-04-26 13:22 55.95049 -3.36389 111 ft 0 kts 174°
2026-04-26 13:22 55.95041 -3.36388 110 ft 5 kts 177°
2026-04-26 13:23 55.94999 -3.36446 110 ft 11 kts 238°
2026-04-26 13:23 55.94956 -3.36576 110 ft 7 kts 238°
2026-04-26 13:23 55.94914 -3.36582 109 ft 9 kts 154°
2026-04-26 13:23 55.94886 -3.36553 107 ft 0 kts 149°
2026-04-26 13:24 55.94881 -3.36547 108 ft 0 kts 149°
2026-04-26 13:24 55.94881 -3.36548 108 ft 0 kts 149°
2026-04-26 13:25 53.36041 -2.26892 253 ft 0 kts 315°